Weather History for Edwards AFB North Base, CA

Change the Weather History Date:

Wednesday, November 21, 2012

  Actual Average (KEDW) Record (KEDW)
Temperature  
Mean Temperature 54 °F -  
Max Temperature 73 °F 62 °F 75 °F (2001)
Min Temperature 34 °F 34 °F 26 °F (1998)
Degree Days  
Heating Degree Days 12    
Growing Degree Days 4 (Base 50)    
Moisture  
Dew Point 33 °F    
Average Humidity 49    
Maximum Humidity 71    
Minimum Humidity 22    
Precipitation  
Precipitation 0.00 in - - ()
Sea Level Pressure  
Sea Level Pressure 30.05 in    
Wind  
Wind Speed 8 mph (WNW)    
Max Wind Speed 23 mph    
Max Gust Speed 30 mph    
Visibility 10 miles    
Events      
Averages and records for this station are not official NWS values.
T = Trace of Precipitation, MM = Missing Value Source: NWS Daily Summary

Daily Weather History Graph

Daily Weather History Graph

Search for Another Location

Airport:

Trip Planner

Search our weather history database for the weather conditions in past years. The results will help you decide how hot, cold, wet, or windy it might be!

Date:

Astronomy

Nov. 21, 2012 Rise Set
Actual Time 6:32 AM PST 4:42 PM PST
Civil Twilight 6:05 AM PST 5:09 PM PST
Nautical Twilight 5:34 AM PST 5:40 PM PST
Astronomical Twilight 5:03 AM PST 6:10 PM PST
Moon 12:48 PM PST (11/21) 12:10 AM PST (11/21)
Length of Visible Light 11h 04m
Length of Day
10h 10m
Waxing Gibbous, 63% of the Moon is Illuminated
Nov 21
Waxing Gibbous
Nov 28
Full
Dec 6
Last Quarter
Dec 13
New
Dec 19
First Quarter

Hourly Weather History & Observations

Time (PST) Temp. Windchill Dew Point Humidity Pressure Visibility Wind Dir Wind Speed Gust Speed Precip Events Conditions
12:55 AM 39.0 °F 35.7 °F 27.0 °F 62% 30.07 in 10.0 mi NNE 4.6 mph - N/A   Clear
1:55 AM 37.9 °F 35.5 °F 27.0 °F 65% 30.07 in 10.0 mi North 3.5 mph - N/A   Clear
2:55 AM 36.0 °F - 25.0 °F 64% 30.07 in 10.0 mi Calm Calm - N/A   Clear
3:55 AM 41.0 °F 39.0 °F 28.9 °F 62% 30.06 in 10.0 mi Variable 3.5 mph - N/A   Clear
4:55 AM 36.0 °F - 25.0 °F 64% 30.07 in 10.0 mi Calm Calm - N/A   Clear
5:55 AM 36.0 °F - 27.0 °F 70% 30.09 in 10.0 mi Calm Calm - N/A   Clear
6:55 AM 34.0 °F 31.0 °F 25.0 °F 70% 30.11 in 10.0 mi NNW 3.5 mph - N/A   Clear
7:55 AM 42.1 °F 40.2 °F 28.9 °F 60% 30.12 in 10.0 mi ENE 3.5 mph - N/A   Clear
8:55 AM 52.0 °F - 32.0 °F 47% 30.10 in 10.0 mi NNE 3.5 mph - N/A   Clear
9:55 AM 63.0 °F - 33.1 °F 33% 30.09 in 10.0 mi SSW 9.2 mph 25.3 mph N/A   Clear
10:14 AM 66.2 °F - 33.8 °F 30% 30.08 in 10.0 mi West 19.6 mph - N/A   Clear
10:55 AM 70.0 °F - 30.9 °F 24% 30.05 in 10.0 mi West 19.6 mph 24.2 mph N/A   Clear
11:55 AM 71.1 °F - 32.0 °F 24% 30.03 in 10.0 mi West 23.0 mph 26.5 mph N/A   Clear
12:55 PM 72.0 °F - 30.9 °F 22% 30.02 in 10.0 mi West 19.6 mph 26.5 mph N/A   Clear
1:55 PM 73.0 °F - 34.0 °F 24% 30.00 in 10.0 mi West 16.1 mph 21.9 mph N/A   Clear
2:55 PM 71.1 °F - 37.0 °F 29% 30.00 in 10.0 mi West 23.0 mph 26.5 mph N/A   Clear
3:55 PM 66.9 °F - 39.0 °F 36% 30.01 in 10.0 mi West 18.4 mph 29.9 mph N/A   Clear
4:55 PM 63.0 °F - 39.0 °F 41% 30.01 in 10.0 mi West 18.4 mph 25.3 mph N/A   Clear
5:55 PM 60.1 °F - 39.9 °F 47% 30.02 in 10.0 mi West 18.4 mph 24.2 mph N/A   Clear
6:55 PM - - - N/A% - - North - - N/A   Unknown
7:55 PM 57.0 °F - 39.9 °F 53% 30.05 in 10.0 mi West 8.1 mph - N/A   Clear
8:55 PM 55.9 °F - 39.9 °F 55% 30.06 in 10.0 mi South 3.5 mph - N/A   Clear
9:55 PM 55.0 °F - 41.0 °F 59% 30.04 in 10.0 mi West 12.7 mph - N/A   Clear
10:55 PM 52.0 °F - 39.9 °F 63% 30.04 in 10.0 mi NNW 3.5 mph - N/A   Clear
11:55 PM 46.0 °F 43.9 °F 37.0 °F 71% 30.06 in 10.0 mi WNW 4.6 mph - N/A   Clear